TimeCDT,TemperatureF,Dew PointF,Humidity,Sea Level PressureIn,VisibilityMPH,Wind Direction,Wind SpeedMPH,Gust SpeedMPH,PrecipitationIn,Events,Conditions,WindDirDegrees,DateUTC
12:51 AM,63.0,37.9,40,30.09,10.0,SSE,12.7,-,N/A,,Clear,150,2011-10-25 05:51:00
1:51 AM,61.0,39.9,46,30.09,10.0,SSE,9.2,-,N/A,,Clear,150,2011-10-25 06:51:00
3:51 AM,59.0,45.0,60,30.06,10.0,South,11.5,-,N/A,,Partly Cloudy,170,2011-10-25 08:51:00
4:51 AM,57.9,48.0,70,30.05,10.0,South,6.9,-,N/A,,Scattered Clouds,170,2011-10-25 09:51:00
5:51 AM,57.0,48.9,74,30.06,10.0,SSE,4.6,-,N/A,,Scattered Clouds,160,2011-10-25 10:51:00
6:51 AM,57.0,50.0,77,30.05,10.0,South,6.9,-,N/A,,Scattered Clouds,170,2011-10-25 11:51:00
7:51 AM,59.0,50.0,72,30.04,10.0,South,10.4,-,N/A,,Scattered Clouds,180,2011-10-25 12:51:00
8:51 AM,64.0,51.1,63,30.03,10.0,South,12.7,-,N/A,,Scattered Clouds,170,2011-10-25 13:51:00
9:51 AM,69.1,50.0,51,30.00,10.0,South,13.8,20.7,N/A,,Scattered Clouds,190,2011-10-25 14:51:00
10:51 AM,73.0,46.9,39,29.97,10.0,South,18.4,28.8,N/A,,Mostly Cloudy,190,2011-10-25 15:51:00
11:51 AM,79.0,41.0,26,29.94,10.0,SSW,21.9,34.5,N/A,,Scattered Clouds,200,2011-10-25 16:51:00
12:51 PM,81.0,37.9,21,29.91,10.0,SSW,23.0,32.2,N/A,,Scattered Clouds,200,2011-10-25 17:51:00
1:51 PM,81.0,39.9,23,29.86,10.0,SSW,23.0,35.7,N/A,,Mostly Cloudy,200,2011-10-25 18:51:00
2:51 PM,82.0,45.0,27,29.83,10.0,SSW,21.9,32.2,N/A,,Mostly Cloudy,210,2011-10-25 19:51:00
3:51 PM,82.0,48.0,30,29.80,10.0,SSW,19.6,27.6,N/A,,Mostly Cloudy,200,2011-10-25 20:51:00
4:51 PM,81.0,48.9,33,29.77,10.0,South,19.6,27.6,N/A,,Mostly Cloudy,190,2011-10-25 21:51:00
5:51 PM,79.0,51.1,38,29.77,10.0,South,15.0,24.2,N/A,,Mostly Cloudy,180,2011-10-25 22:51:00
6:51 PM,78.1,53.1,42,29.78,10.0,SSW,19.6,-,N/A,,Mostly Cloudy,200,2011-10-25 23:51:00
7:51 PM,75.9,54.0,46,29.82,10.0,SSW,12.7,20.7,N/A,,Scattered Clouds,210,2011-10-26 00:51:00
8:51 PM,75.0,55.0,50,29.82,10.0,SSW,15.0,-,N/A,,Scattered Clouds,210,2011-10-26 01:51:00
9:51 PM,73.0,55.0,53,29.82,10.0,SSW,11.5,-,N/A,,Mostly Cloudy,200,2011-10-26 02:51:00
10:51 PM,73.0,55.0,53,29.81,10.0,SSW,15.0,24.2,N/A,,Mostly Cloudy,200,2011-10-26 03:51:00
11:51 PM,72.0,57.0,59,29.80,10.0,SSW,12.7,-,N/A,,Mostly Cloudy,210,2011-10-26 04:51:00